Location: ????????
(38.4362°N, 22.8767°E)
Time: 03:23:31
(UTC+00:00)

SEDSat Delta rocket - Pass Details

Date: 23 April 2024
Orbit: 530 x 982 km, 31.4° (Epoch: 23 May)

Event Time Altitude Azimuth Distance (km) Brightness Sun altitude
Exits shadow 01:42:44 39° 199° (SSW) 1,215 4.1 -21.4°
Maximum altitude 01:43:38 42° 176° (S) 1,178 4.2 -21.3°
Drops below altitude 10° 01:49:28 10° 107° (ESE) 2,590 6.7 -20.4°
Sets 01:52:19 0° 101° (E) 3,586 7.6 -19.9°
